Regional Weather Roundup
Issued by NWS Jackson, KY

Home | Current Version | Previous Version | Text Only | Print | Product List | Glossary On
Versions: 1 2 3 4 5 6 7 8 9 10 11 12 13 14 15 16 17 18 19 20 21 22 23 24 25 26 27 28 29 30 31 32 33 34 35 36 37 38 39 40 41 42 43 44 45 46 47 48 49 50
000
ASUS43 KJKL 250310
RWRJKL

EAST KENTUCKY HOURLY WEATHER ROUNDUP
NATIONAL WEATHER SERVICE JACKSON KY
1000 PM EST FRI FEB 24 2017

NOTE: "FAIR" INDICATES FEW OR NO CLOUDS BELOW 12,000 FEET WITH
NO SIGNIFICANT WEATHER AND/OR OBSTRUCTIONS TO VISIBILITY.

* THESE REPORTS ARE NOT UNDER NWS QUALITY CONTROL AND MAY NOT
  REPORT WEATHER SUCH AS PRECIPITATION AND FOG.

KYZ079-080-083-085-087-088-110-112-115-119-120-250400
...EASTERN KENTUCKY...

CITY           SKY/WX    TMP DP  RH WIND       PRES   REMARKS
JACKSON        CLEAR     69  50  50 VRB6      29.66R
LONDON         CLEAR     69  49  48 S14       29.65F
SOMERSET*      CLOUDY    68  52  56 S8G18     29.65F
MONTICELLO*    PTCLDY    71  53  52 VRB7      29.65F
WILLIAMSBURG*  PTCLDY    70  52  52 SW10G20   29.67F
MIDDLESBORO*   PTCLDY    70  52  52 S10G18    29.71S
HARLAN APT*    MOCLDY    70  46  43 SE6G18    29.71F
PIKE CO APT*   CLOUDY    69  49  48 S5        29.68S
BIG SANDY APT* CLEAR     71  49  46 SW10      29.66F
MOREHEAD APT*  CLOUDY    70  50  49 S15       29.62F
ASHLAND*       CLOUDY    64  52  63 CALM      29.58F
$$

KYZ035-036-041-042-044-050-067-078-099-250400
...CENTRAL KENTUCKY...

CITY           SKY/WX    TMP DP  RH WIND       PRES   REMARKS
FLEMING/MASON* MOCLDY    69  52  55 S17       29.57F
DANVILLE*      LGT RAIN  63  55  77 W14G23    29.64R
LEXINGTON      TSTM      62  57  83 SW9       29.62R
FRANKFORT      CLOUDY    61  56  83 SW5       29.59F
LOUISVILLE     LGT RAIN  63  55  75 W18       29.61R
LEBANON*       LGT RAIN  61  59  94 S6        29.63S
GLASGOW*       LGT RAIN  63  53  69 W10G16    29.65F
BOWLING GREEN  CLOUDY    66  52  60 W12       29.66S
$$

KYZ091>093-OHZ055-061-077-WVZ005-015-034-035-042-250400
...SOUTHERN OHIO/WEST VIRGINIA...

CITY           SKY/WX    TMP DP  RH WIND       PRES   REMARKS
COVINGTON      CLOUDY    61  57  87 SW10      29.57S
COLUMBUS       CLOUDY    69  52  54 S7        29.52S
DAYTON         CLOUDY    60  55  83 S12       29.53F
WILMINGTON     LGT RAIN  59  56  89 SW14      29.55F
HUNTINGTON     CLEAR     70  47  43 S10       29.61S
CHARLESTON     PTCLDY    69  48  47 S6        29.64R
PINEVILLE*     CLEAR     58  48  69 MISG      29.77S
BECKLEY        CLEAR     60  48  64 S13       29.75S
BLUEFIELD      CLEAR     59  47  64 S8        29.79R
LOGAN CO APT*    N/A     68  48  49 S12G17    29.68R
$$

VAZ002-007-008-TNZ017-027-036-066-071-250400
...SOUTHWEST VIRGINIA/EAST TENNESSEE...

CITY           SKY/WX    TMP DP  RH WIND       PRES   REMARKS
WISE*          CLOUDY    63  46  55 S10G16    29.77S
JONESVILLE*      N/A     64  50  59 SW10      29.75S
ABINGDON*      CLEAR     62  50  63 W3        29.78R
BRISTOL        PTCLDY    64  50  60 S5        29.76R
MORRISTOWN*    MOCLDY    66  50  55 S8        29.73F
SEVIERVILLE*   CLEAR     68  48  49 CALM      29.73F
KNOXVILLE      PTCLDY    66  50  56 S8        29.71F
LAFOLLETTE*    MOCLDY    70  52  52 S8        29.73S
OAK RIDGE      MOCLDY    71  51  49 S9        29.72F
CROSSVILLE     CLOUDY    67  51  56 S8        29.72F
NASHVILLE      CLOUDY    68  52  56 W6        29.67F THUNDER
$$

...KEY TO REMARKS...
VSB - VISIBILITY IN MILES
WCI - WIND CHILL INDEX
HX  - HEAT INDEX

$$



USA.gov is the U.S. government's official web portal to all federal, state and local government web resources and services.